| time (UTC) | temp C | wind direction | speed KPH | gust KPH | rain 1hr cm | rain 24hr cm | rain mn cm | humidity % | barometer mb |
| 20260505034617 | 12 | 29 | 1.6 | 9.7 | 0.00 | 0.08 | 0.00 | 92 | 1008.4 |
| 20260505034117 | 12 | 53 | 0.0 | 4.8 | 0.00 | 0.08 | 0.00 | 92 | 1008.6 |
| 20260505033617 | 12 | 63 | 1.6 | 9.7 | 0.00 | 0.08 | 0.00 | 92 | 1008.5 |
| 20260505033116 | 12 | 20 | 0.0 | 9.7 | 0.00 | 0.08 | 0.00 | 92 | 1008.4 |
| 20260505032617 | 12 | 25 | 1.6 | 9.7 | 0.00 | 0.08 | 0.00 | 92 | 1008.4 |
| 20260505032116 | 13 | 21 | 1.6 | 4.8 | 0.00 | 0.08 | 0.00 | 92 | 1008.6 |
| 20260505031617 | 13 | 25 | 0.0 | 0.0 | 0.00 | 0.08 | 0.00 | 92 | 1008.7 |
| 20260505031116 | 13 | 25 | 0.0 | 0.0 | 0.00 | 0.08 | 0.00 | 92 | 1008.8 |
| 20260505030617 | 13 | 25 | 0.0 | 0.0 | 0.00 | 0.08 | 0.00 | 92 | 1008.8 |
| 20260505025616 | 13 | 25 | 0.0 | 0.0 | 0.00 | 0.08 | 0.00 | 92 | 1008.8 |
| 20260505025116 | 13 | 22 | 0.0 | 0.0 | 0.00 | 0.08 | 0.00 | 92 | 1008.6 |
| 20260505024116 | 13 | 20 | 0.0 | 4.8 | 0.00 | 0.08 | 0.00 | 92 | 1008.5 |
| 20260505023617 | 13 | 15 | 1.6 | 8.0 | 0.00 | 0.08 | 0.00 | 92 | 1008.7 |
| 20260505023117 | 13 | 25 | 0.0 | 4.8 | 0.00 | 0.08 | 0.00 | 92 | 1008.6 |
| 20260505022616 | 13 | 25 | 0.0 | 0.0 | 0.00 | 0.08 | 0.00 | 92 | 1008.6 |
| 20260505022116 | 13 | 25 | 0.0 | 8.0 | 0.00 | 0.08 | 0.00 | 92 | 1008.7 |
| 20260505020616 | 13 | 74 | 0.0 | 0.0 | 0.00 | 0.08 | 0.00 | 92 | 1008.9 |
| 20260505020118 | 13 | 76 | 0.0 | 0.0 | 0.00 | 0.08 | 0.00 | 92 | 1009.0 |
| 20260505015617 | 13 | 77 | 0.0 | 3.2 | 0.00 | 0.08 | 0.00 | 92 | 1009.0 |
| 20260505014617 | 13 | 76 | 0.0 | 3.2 | 0.00 | 0.08 | 0.00 | 91 | 1009.1 |
| 20260505013117 | 13 | 77 | 0.0 | 0.0 | 0.00 | 0.08 | 0.00 | 91 | 1009.5 |
| 20260505012617 | 13 | 77 | 0.0 | 0.0 | 0.00 | 0.08 | 0.00 | 91 | 1009.5 |
| 20260505012116 | 13 | 78 | 0.0 | 0.0 | 0.00 | 0.08 | 0.00 | 91 | 1009.4 |
| 20260505011616 | 13 | 78 | 0.0 | 0.0 | 0.00 | 0.08 | 0.00 | 91 | 1009.5 |
| 20260505011117 | 13 | 78 | 0.0 | 0.0 | 0.00 | 0.08 | 0.00 | 91 | 1009.4 |
| 20260505010617 | 13 | 78 | 0.0 | 0.0 | 0.00 | 0.08 | 0.00 | 91 | 1009.5 |
| 20260505010117 | 13 | 78 | 0.0 | 0.0 | 0.00 | 0.08 | 0.00 | 91 | 1009.5 |
| 20260505005617 | 13 | 78 | 0.0 | 0.0 | 0.00 | 0.08 | 0.00 | 90 | 1009.4 |
| 20260505005117 | 13 | 78 | 0.0 | 0.0 | 0.00 | 0.08 | 0.00 | 90 | 1009.5 |
| 20260505004617 | 13 | 78 | 0.0 | 0.0 | 0.00 | 0.08 | 0.00 | 90 | 1009.5 |
| 20260505004117 | 13 | 78 | 0.0 | 0.0 | 0.00 | 0.08 | 0.00 | 90 | 1009.5 |
| 20260505003618 | 13 | 78 | 0.0 | 0.0 | 0.00 | 0.08 | 0.00 | 90 | 1009.5 |
| 20260505002616 | 13 | 78 | 0.0 | 0.0 | 0.00 | 0.08 | 0.00 | 90 | 1009.5 |
| 20260505002117 | 13 | 78 | 0.0 | 0.0 | 0.00 | 0.08 | 0.00 | 90 | 1009.5 |
| 20260505001616 | 13 | 78 | 0.0 | 0.0 | 0.00 | 0.08 | 0.00 | 90 | 1009.5 |
| 20260505001117 | 13 | 78 | 0.0 | 0.0 | 0.00 | 0.08 | 0.00 | 90 | 1009.4 |
| 20260505000617 | 13 | 78 | 0.0 | 0.0 | 0.00 | 0.08 | 0.00 | 90 | 1009.4 |
| 20260505000118 | 13 | 78 | 0.0 | 0.0 | 0.00 | 0.08 | 0.00 | 90 | 1009.3 |
| 20260504235616 | 13 | 76 | 0.0 | 0.0 | 0.00 | 0.08 | 0.00 | 90 | 1009.2 |
| 20260504235116 | 13 | 78 | 0.0 | 0.0 | 0.00 | 0.08 | 0.00 | 90 | 1009.2 |
| 20260504234116 | 13 | 78 | 0.0 | 0.0 | 0.00 | 0.08 | 0.00 | 90 | 1009.2 |
| 20260504233616 | 13 | 78 | 0.0 | 0.0 | 0.00 | 0.08 | 0.00 | 90 | 1009.2 |
| 20260504233117 | 13 | 78 | 1.6 | 3.2 | 0.00 | 0.08 | 0.00 | 90 | 1009.2 |
| 20260504231617 | 13 | 79 | 0.0 | 0.0 | 0.00 | 0.08 | 0.00 | 90 | 1009.5 |
| 20260504231117 | 13 | 79 | 0.0 | 0.0 | 0.00 | 0.08 | 0.00 | 90 | 1009.5 |
| 20260504230117 | 13 | 79 | 0.0 | 0.0 | 0.00 | 0.08 | 0.00 | 90 | 1009.8 |
| 20260504225616 | 13 | 79 | 0.0 | 0.0 | 0.00 | 0.08 | 0.00 | 90 | 1009.9 |
| 20260504225117 | 13 | 79 | 0.0 | 0.0 | 0.00 | 0.08 | 0.00 | 90 | 1010.0 |
| 20260504224617 | 13 | 79 | 0.0 | 0.0 | 0.00 | 0.08 | 0.00 | 90 | 1010.0 |
| 20260504224117 | 13 | 79 | 0.0 | 0.0 | 0.00 | 0.08 | 0.00 | 90 | 1010.0 |
| 20260504223617 | 13 | 79 | 0.0 | 0.0 | 0.00 | 0.08 | 0.00 | 90 | 1010.0 |
| 20260504223116 | 13 | 79 | 0.0 | 0.0 | 0.00 | 0.08 | 0.00 | 90 | 1010.0 |
| 20260504222617 | 13 | 79 | 0.0 | 0.0 | 0.00 | 0.08 | 0.00 | 90 | 1010.1 |
| 20260504222116 | 13 | 79 | 0.0 | 0.0 | 0.00 | 0.08 | 0.00 | 90 | 1010.1 |
| 20260504221616 | 14 | 76 | 0.0 | 0.0 | 0.00 | 0.08 | 0.00 | 90 | 1010.2 |
| 20260504221117 | 14 | 79 | 0.0 | 0.0 | 0.00 | 0.08 | 0.00 | 90 | 1010.3 |
| 20260504220616 | 14 | 79 | 0.0 | 0.0 | 0.00 | 0.08 | 0.00 | 90 | 1010.2 |
| 20260504220116 | 14 | 79 | 0.0 | 0.0 | 0.00 | 0.08 | 0.00 | 90 | 1010.3 |
| 20260504215617 | 14 | 78 | 0.0 | 0.0 | 0.00 | 0.08 | 0.08 | 90 | 1010.3 |
| 20260504215117 | 14 | 79 | 0.0 | 0.0 | 0.00 | 0.08 | 0.08 | 90 | 1010.4 |
| 20260504214116 | 14 | 78 | 0.0 | 0.0 | 0.00 | 0.08 | 0.08 | 89 | 1010.5 |
| 20260504213615 | 14 | 78 | 0.0 | 0.0 | 0.00 | 0.08 | 0.08 | 89 | 1010.5 |
| 20260504213115 | 14 | 79 | 0.0 | 0.0 | 0.00 | 0.08 | 0.08 | 89 | 1010.5 |
| 20260504212615 | 14 | 79 | 0.0 | 0.0 | 0.00 | 0.08 | 0.08 | 89 | 1010.6 |
| 20260504211615 | 14 | 78 | 0.0 | 0.0 | 0.00 | 0.08 | 0.08 | 89 | 1010.6 |
| 20260504210615 | 14 | 79 | 0.0 | 0.0 | 0.00 | 0.08 | 0.08 | 89 | 1010.6 |
| 20260504210115 | 14 | 79 | 0.0 | 0.0 | 0.00 | 0.08 | 0.08 | 89 | 1010.6 |
| 20260504205615 | 14 | 78 | 0.0 | 0.0 | 0.00 | 0.08 | 0.08 | 89 | 1010.7 |
| 20260504205115 | 14 | 79 | 0.0 | 0.0 | 0.00 | 0.08 | 0.08 | 89 | 1010.7 |
| 20260504204615 | 14 | 79 | 0.0 | 0.0 | 0.00 | 0.08 | 0.08 | 89 | 1010.7 |
| 20260504204116 | 14 | 78 | 0.0 | 0.0 | 0.00 | 0.08 | 0.08 | 88 | 1010.8 |
| 20260504203115 | 15 | 79 | 0.0 | 0.0 | 0.00 | 0.08 | 0.08 | 88 | 1010.8 |
| 20260504202115 | 15 | 79 | 0.0 | 0.0 | 0.00 | 0.08 | 0.08 | 89 | 1010.8 |
| 20260504201615 | 15 | 79 | 0.0 | 0.0 | 0.00 | 0.08 | 0.08 | 89 | 1010.8 |
| 20260504201115 | 15 | 78 | 0.0 | 0.0 | 0.00 | 0.08 | 0.08 | 89 | 1010.8 |
| 20260504200616 | 15 | 79 | 0.0 | 0.0 | 0.00 | 0.08 | 0.08 | 89 | 1010.8 |
| 20260504195615 | 15 | 79 | 0.0 | 0.0 | 0.00 | 0.08 | 0.08 | 89 | 1010.7 |
| 20260504195115 | 15 | 79 | 0.0 | 0.0 | 0.00 | 0.08 | 0.08 | 89 | 1010.6 |
| 20260504194615 | 15 | 78 | 0.0 | 0.0 | 0.00 | 0.08 | 0.08 | 89 | 1010.6 |
| 20260504194115 | 15 | 79 | 0.0 | 0.0 | 0.03 | 0.08 | 0.08 | 89 | 1010.7 |
| 20260504193616 | 15 | 79 | 0.0 | 0.0 | 0.03 | 0.08 | 0.08 | 89 | 1010.6 |
| 20260504193115 | 15 | 77 | 0.0 | 0.0 | 0.03 | 0.08 | 0.08 | 89 | 1010.4 |
| 20260504192616 | 15 | 79 | 0.0 | 0.0 | 0.03 | 0.08 | 0.08 | 89 | 1010.4 |
| 20260504192114 | 15 | 79 | 0.0 | 0.0 | 0.03 | 0.08 | 0.08 | 89 | 1010.4 |
| 20260504191616 | 15 | 78 | 0.0 | 0.0 | 0.03 | 0.08 | 0.08 | 88 | 1010.5 |
| 20260504191114 | 15 | 79 | 0.0 | 0.0 | 0.03 | 0.08 | 0.08 | 88 | 1010.5 |
| 20260504190615 | 15 | 79 | 0.0 | 0.0 | 0.03 | 0.08 | 0.08 | 88 | 1010.5 |
| 20260504190115 | 15 | 81 | 0.0 | 0.0 | 0.03 | 0.08 | 0.08 | 88 | 1010.5 |
| 20260504185615 | 15 | 82 | 0.0 | 0.0 | 0.03 | 0.08 | 0.08 | 88 | 1010.6 |
| 20260504185115 | 15 | 80 | 0.0 | 0.0 | 0.03 | 0.08 | 0.08 | 88 | 1010.5 |
| 20260504184614 | 15 | 82 | 0.0 | 0.0 | 0.03 | 0.08 | 0.08 | 87 | 1010.4 |
| 20260504184115 | 15 | 82 | 0.0 | 0.0 | 0.00 | 0.05 | 0.05 | 87 | 1010.4 |
| 20260504183615 | 15 | 83 | 0.0 | 0.0 | 0.00 | 0.05 | 0.05 | 87 | 1010.4 |
| 20260504183115 | 15 | 83 | 0.0 | 0.0 | 0.00 | 0.05 | 0.05 | 86 | 1010.4 |
| 20260504182115 | 16 | 84 | 0.0 | 3.2 | 0.00 | 0.05 | 0.05 | 85 | 1010.4 |
| 20260504181615 | 16 | 154 | 0.0 | 0.0 | 0.00 | 0.05 | 0.05 | 84 | 1010.4 |
| 20260504181116 | 16 | 164 | 0.0 | 0.0 | 0.00 | 0.05 | 0.05 | 83 | 1010.4 |
| 20260504180615 | 16 | 165 | 0.0 | 0.0 | 0.00 | 0.05 | 0.05 | 82 | 1010.4 |
| 20260504180115 | 16 | 167 | 0.0 | 0.0 | 0.00 | 0.05 | 0.05 | 82 | 1010.3 |
| 20260504175616 | 16 | 169 | 0.0 | 0.0 | 0.00 | 0.05 | 0.05 | 82 | 1010.3 |
| 20260504175115 | 16 | 169 | 0.0 | 0.0 | 0.00 | 0.05 | 0.05 | 82 | 1010.2 |
| 20260504174615 | 16 | 168 | 0.0 | 0.0 | 0.00 | 0.05 | 0.05 | 82 | 1010.2 |
| 20260504174115 | 16 | 166 | 0.0 | 0.0 | 0.00 | 0.05 | 0.05 | 80 | 1010.3 |
| 20260504173616 | 16 | 169 | 0.0 | 0.0 | 0.00 | 0.05 | 0.05 | 78 | 1010.2 |
| 20260504172614 | 17 | 170 | 0.0 | 0.0 | 0.00 | 0.05 | 0.05 | 74 | 1010.1 |
| 20260504172115 | 17 | 168 | 0.0 | 0.0 | 0.00 | 0.05 | 0.05 | 73 | 1010.1 |
| 20260504171614 | 17 | 171 | 0.0 | 0.0 | 0.00 | 0.05 | 0.05 | 72 | 1010.1 |
| 20260504171115 | 17 | 171 | 0.0 | 1.6 | 0.00 | 0.05 | 0.05 | 72 | 1010.1 |
| 20260504170615 | 17 | 170 | 0.0 | 0.0 | 0.00 | 0.05 | 0.05 | 72 | 1010.2 |
| 20260504170115 | 17 | 171 | 0.0 | 0.0 | 0.00 | 0.05 | 0.05 | 71 | 1010.1 |
| 20260504151116 | 18 | 201 | 0.0 | 0.0 | 0.00 | 0.05 | 0.05 | 72 | 1010.4 |
| 20260504150615 | 18 | 198 | 0.0 | 0.0 | 0.00 | 0.05 | 0.05 | 74 | 1010.5 |
| 20260504150115 | 18 | 194 | 0.0 | 0.0 | 0.00 | 0.05 | 0.05 | 72 | 1010.5 |
| 20260504141115 | 18 | 175 | 0.0 | 0.0 | 0.00 | 0.23 | 0.05 | 74 | 1010.7 |
| 20260504140616 | 18 | 153 | 0.0 | 4.8 | 0.00 | 0.46 | 0.05 | 75 | 1010.8 |
| 20260504140116 | 17 | 113 | 0.0 | 0.0 | 0.00 | 0.61 | 0.05 | 75 | 1010.9 |
| 20260504130615 | 16 | 109 | 0.0 | 0.0 | 0.00 | 0.61 | 0.05 | 82 | 1011.1 |
| 20260504120115 | 17 | 103 | 0.0 | 0.0 | 0.00 | 0.61 | 0.05 | 77 | 1011.4 |
| 20260504110616 | 16 | 128 | 0.0 | 0.0 | 0.03 | 0.61 | 0.05 | 85 | 1011.8 |
| 20260504110115 | 16 | 129 | 0.0 | 0.0 | 0.03 | 0.61 | 0.05 | 85 | 1011.8 |
| 20260504100615 | 15 | 135 | 0.0 | 0.0 | 0.03 | 0.58 | 0.05 | 89 | 1011.9 |
| 20260504100115 | 15 | 135 | 0.0 | 0.0 | 0.03 | 0.58 | 0.05 | 89 | 1011.9 |
| 20260504081115 | 15 | 139 | 0.0 | 0.0 | 0.00 | 0.56 | 0.03 | 89 | 1012.0 |
| 20260504080115 | 15 | 140 | 0.0 | 0.0 | 0.00 | 0.56 | 0.03 | 90 | 1011.9 |
| 20260504070116 | 14 | 139 | 0.0 | 0.0 | 0.03 | 0.58 | 0.03 | 90 | 1011.5 |
| 20260504060116 | 13 | 139 | 0.0 | 0.0 | 0.00 | 0.61 | 0.00 | 90 | 1011.1 |
| 20260504050615 | 13 | 168 | 0.0 | 0.0 | 0.00 | 0.79 | 0.00 | 90 | 1010.8 |
| 20260504050116 | 13 | 170 | 0.0 | 0.0 | 0.00 | 0.79 | 0.00 | 90 | 1010.8 |
| 20260504045615 | 13 | 169 | 0.0 | 0.0 | 0.00 | 0.79 | 0.00 | 90 | 1010.8 |
| 20260504045116 | 13 | 169 | 0.0 | 0.0 | 0.00 | 0.81 | 0.00 | 90 | 1010.7 |
| 20260504044115 | 13 | 170 | 0.0 | 0.0 | 0.00 | 0.84 | 0.00 | 90 | 1010.7 |
| 20260504043117 | 13 | 168 | 0.0 | 0.0 | 0.00 | 0.86 | 0.00 | 90 | 1010.5 |
| 20260504042615 | 13 | 170 | 0.0 | 0.0 | 0.00 | 0.86 | 0.00 | 90 | 1010.6 |
| 20260504042115 | 13 | 170 | 0.0 | 0.0 | 0.00 | 0.86 | 0.00 | 90 | 1010.6 |
| 20260504041615 | 13 | 170 | 0.0 | 0.0 | 0.00 | 0.86 | 0.00 | 89 | 1010.6 |
| 20260504041115 | 13 | 170 | 0.0 | 0.0 | 0.00 | 0.86 | 0.00 | 90 | 1010.7 |
| 20260504040116 | 13 | 169 | 0.0 | 0.0 | 0.00 | 0.86 | 0.00 | 90 | 1010.9 |
| 20260504035615 | 13 | 170 | 0.0 | 0.0 | 0.00 | 0.86 | 0.00 | 89 | 1010.8 |